Powrót do katalogu

METEOR 2-5 DEB

LostPO
NORAD 28555·DEBRIS·🇷🇺 Russia

Wystrzelony Oct 31, 1979 z Plesetsk Cosmodrome

Loading…

Następne Przeloty (najbliższe 24 godziny)

TLE

NieaktualneSource: Space-Track

Epoka: Jun 10, 2026, 22:36 UTC

1 28555U 79095D   26161.94186480  .00205958  00000-0  67282-2 0  9997
2 28555  81.1447 245.9708 0007615 279.0616  80.9758 15.30848760246895

Śledź METEOR 2-5 DEB w czasie rzeczywistym z AllMySat

Download on the App Store